Location: Unspecified
(0.0000°N, 0.0000°E)
Time: 03:12:48
(UTC+00:00)

ISS - Pass Details

Date: 09 March 2026
Orbit: 417 x 426 km, 51.6° (Epoch: 16 March)

Event Time Altitude Azimuth Distance (km) Brightness Sun altitude
Exits shadow 05:13:28 - 344° (NNW) 2,181 -0.3 -14.2°
Reaches altitude 10° 05:15:21 10° 355° (N) 1,480 -1.1 -13.8°
Maximum altitude 05:18:12 26° 54° (NE) 849 -1.6 -13.1°
Drops below altitude 10° 05:21:03 10° 114° (ESE) 1,486 0.3 -12.3°
Sets 05:23:21 0° 127° (SE) 2,352 1.1 -11.8°
